Location: Gleizolles
(44.4833°N, 6.7667°E)
Time: 22:20:44
(UTC+00:00)

A-11 Canister half - Pass Details

Date: 26 June 2024
Orbit: 1524 x 1684 km, 47.3° (Epoch: 18 July)

Event Time Altitude Azimuth Distance (km) Brightness Sun altitude
Rises 14:15:42 0° 275° (W) 4,722 12.1 51.2°
Reaches altitude 10° 14:18:48 10° 277° (W) 3,723 11.8 50.7°
Maximum altitude 14:28:11 75° 3° (N) 1,571 9.9 49.1°
Drops below altitude 10° 14:37:30 10° 89° (E) 3,694 10.7 47.5°
Sets 14:40:34 0° 91° (E) 4,684 11.1 47.0°
